Stations météo

Publicité
Macon, France (7385): Température de l'air & dewpoint: 18.02.2019 00:00:00 - 24.02.2019 00:00:00 (CET)Macon, France (7385): Température de l'air 5cm: 18.02.2019 00:00:00 - 24.02.2019 00:00:00 (CET)Macon, France (7385): Température de l'air -20cm & Température de l'air -100cm: 18.02.2019 00:00:00 - 24.02.2019 00:00:00 (CET)Macon, France (7385): Vitesse du vent & gusts: 18.02.2019 00:00:00 - 24.02.2019 00:00:00 (CET)Macon, France (7385): Direction du vent: 18.02.2019 00:00:00 - 24.02.2019 00:00:00 (CET)Macon, France (7385): reduced air pressure: 18.02.2019 00:00:00 - 24.02.2019 00:00:00 (CET)Macon, France (7385): visibility: 18.02.2019 00:00:00 - 24.02.2019 00:00:00 (CET)Macon, France (7385): Ensoleillement: 18.02.2019 00:00:00 - 24.02.2019 00:00:00 (CET)Macon, France (7385): Quantités de précipitations: 18.02.2019 00:00:00 - 24.02.2019 00:00:00 (CET)
Date & Time tt [°C] td [°C] tt 5cm [°C] tt -20cm [°C] tt -100cm [°C] ff [km/h] ff [knt] fx [km/h] fx [knt] dd ppp [hPa] vv [km] sd [min] rr [mm]
24.02.2019 00:00:00 7,0 -0,7 5,2 7,7 7,7 13 7 19 11 NW 1030,9 20 0 0,0
23.02.2019 23:00:00 7,6 -0,9 5,4 7,7 7,7 10 5 17 9 NW 1030,7 20 0 0,0
23.02.2019 22:00:00 8,3 -0,5 6,5 7,8 7,7 12 6 19 11 NW 1030,6 20 0 0,0
23.02.2019 21:00:00 9,1 -0,3 7,3 7,8 7,7 13 7 18 10 NW 1030,3 20 0 0,0
23.02.2019 20:00:00 10,1 0,4 8,2 7,7 7,7 11 6 16 9 WNW 1030,1 20 0 0,0
23.02.2019 19:00:00 10,9 1,1 7,4 7,7 7,7 9 5 13 7 WNW 1029,7 20 0 0,0
23.02.2019 18:00:00 12,8 1,8 11,3 7,6 7,7 8 4 21 11 NNW 1029,4 20 54 0,0
23.02.2019 17:00:00 14,0 3,2 15,1 7,4 7,6 5 3 16 8 NNE 1029,3 20 60 0,0
23.02.2019 16:00:00 14,4 2,6 16,1 7,3 7,7 4 2 21 12 N 1029,1 18 60 0,0
23.02.2019 15:00:00 14,2 3,3 16,9 7,1 7,6 10 5 24 13 N 1029,5 19 60 0,0
23.02.2019 14:00:00 13,3 3,4 14,6 7,1 7,6 16 8 28 15 NNE 1030,3 19 60 0,0
23.02.2019 13:00:00 12,5 3,2 14,7 7,0 7,6 13 7 23 12 NNE 1030,8 19 60 0,0
23.02.2019 12:00:00 11,3 3,3 15,5 7,0 7,6 13 7 22 12 N 1031,2 19 60 0,0
23.02.2019 11:00:00 9,9 3,0 13,8 7,0 7,6 11 6 23 13 N 1031,4 16 60 0,0
23.02.2019 10:00:00 8,4 3,2 8,1 7,1 7,6 13 7 22 12 N 1031,5 16 60 0,0
23.02.2019 09:00:00 6,1 2,9 4,4 7,2 7,6 13 7 19 10 NW 1031,6 11 60 0,0
23.02.2019 08:00:00 4,7 2,2 3,1 7,2 7,6 10 5 17 9 NW 1031,8 10 6 0,0
23.02.2019 07:00:00 4,8 2,2 3,3 7,3 7,6 10 5 17 9 NW 1031,3 9 0 0,0
23.02.2019 06:00:00 5,6 2,6 3,6 7,4 7,6 10 6 22 12 NW 1031,2 11 0 0,0
23.02.2019 05:00:00 5,9 2,9 4,2 7,4 7,6 8 4 21 11 WNW 1031,5 11 0 0,0
23.02.2019 04:00:00 7,0 3,4 5,5 7,4 7,6 13 7 22 12 NNW 1031,6 14 0 0,0
23.02.2019 03:00:00 7,6 3,6 6,1 7,5 7,6 12 7 29 16 NNW 1031,6 13 0 0,0
23.02.2019 02:00:00 8,5 4,3 6,9 7,5 7,6 13 7 31 17 NNW 1031,7 13 0 0,0
23.02.2019 01:00:00 9,0 4,8 7,6 7,5 7,6 18 10 29 16 NNW 1032,0 13 0 0,0
23.02.2019 00:00:00 9,5 4,7 8,0 7,5 7,6 13 7 30 16 NNW 1032,0 17 0 0,0
22.02.2019 23:00:00 10,3 5,5 8,9 7,5 7,6 18 10 33 18 NNW 1031,9 19 0 0,0
22.02.2019 22:00:00 10,9 6,0 9,3 7,4 7,6 14 8 33 18 NNW 1031,6 19 0 0,0
22.02.2019 21:00:00 11,6 6,7 10,4 7,4 7,6 19 11 35 19 NNW 1031,8 20 0 0,0
22.02.2019 20:00:00 12,3 7,4 11,0 7,3 7,6 19 10 33 18 N 1031,7 20 0 0,0
22.02.2019 19:00:00 13,2 7,8 11,5 7,2 7,6 14 8 28 15 N 1031,6 20 0 0,0
22.02.2019 18:00:00 14,6 7,6 13,6 7,0 7,6 18 10 37 20 N 1031,2 20 53 0,0
22.02.2019 17:00:00 16,1 8,1 17,7 6,8 7,6 22 12 39 21 N 1031,1 20 60 0,0
22.02.2019 16:00:00 16,9 8,1 19,5 6,7 7,6 24 13 48 26 N 1031,4 20 60 0,0
22.02.2019 15:00:00 17,1 8,5 20,4 6,5 7,6 26 14 45 24 N 1031,5 20 60 0,0
22.02.2019 14:00:00 16,9 7,5 16,8 6,4 7,5 26 14 42 23 N 1031,8 20 60 0,0
22.02.2019 13:00:00 16,1 5,7 17,0 6,2 7,6 24 13 45 24 N 1032,4 18 60 0,0
22.02.2019 12:00:00 15,3 6,6 19,0 6,2 7,6 19 11 33 18 NNW 1032,9 18 60 0,0
22.02.2019 11:00:00 14,2 6,5 16,4 6,2 7,5 14 8 33 18 NNW 1033,2 18 60 0,0
22.02.2019 10:00:00 12,6 5,7 11,4 6,2 7,6 17 9 29 16 N 1033,4 18 60 0,0
22.02.2019 09:00:00 9,7 4,3 7,7 6,2 7,5 15 8 26 14 NW 1033,9 16 60 0,0
22.02.2019 08:00:00 8,2 3,4 6,8 6,3 7,6 19 10 29 16 NW 1033,4 15 4 0,0
22.02.2019 07:00:00 8,2 3,4 6,2 6,3 7,6 15 8 25 13 NW 1032,9 13 0 0,0
22.02.2019 06:00:00 8,0 3,8 4,8 6,4 7,6 10 6 17 9 NW 1032,9 11 0 0,0
22.02.2019 05:00:00 7,3 3,3 4,2 6,4 7,6 9 5 14 7 NW 1032,6 12 0 0,0
22.02.2019 04:00:00 8,0 3,5 2,2 6,5 7,6 9 5 12 7 NW 1032,6 13 0 0,0
22.02.2019 03:00:00 8,4 3,2 5,1 6,5 7,5 6 3 16 9 NW 1032,5 15 0 0,0
22.02.2019 02:00:00 8,8 3,4 6,6 6,6 7,5 11 6 17 9 NW 1032,5 19 0 0,0
22.02.2019 01:00:00 8,6 3,4 5,4 6,6 7,5 11 6 16 9 NW 1032,7 19 0 0,0
22.02.2019 00:00:00 7,8 3,6 2,1 6,6 7,6 10 6 16 9 NW 1032,6 15 0 0,0
21.02.2019 23:00:00 8,8 3,8 2,1 6,6 7,5 5 3 13 7 NNW 1032,2 14 0 0,0
21.02.2019 22:00:00 6,9 3,7 2,2 6,7 7,6 2 1 13 7 NW 1031,8 8 0 0,0
21.02.2019 21:00:00 7,3 3,9 5,6 6,6 7,5 7 4 16 9 WNW 1031,2 8 0 0,0
21.02.2019 20:00:00 9,4 4,6 5,5 6,6 7,5 9 5 14 8 WNW 1030,8 10 0 0,0
21.02.2019 19:00:00 10,8 4,7 6,3 6,5 7,5 6 3 10 5 W 1030,1 13 0 0,0
21.02.2019 18:00:00 14,0 5,4 10,5 6,3 7,5 4 2 7 4 N 1029,5 15 51 0,0
21.02.2019 17:00:00 16,2 6,0 17,5 6,1 7,5 3 2 9 5 ENE 1028,8 16 60 0,0
21.02.2019 16:00:00 16,6 5,8 19,7 5,9 7,5 3 2 10 5 ENE 1029,0 16 60 0,0
21.02.2019 15:00:00 15,8 5,7 20,0 5,8 7,5 4 2 11 6 E 1028,9 14 60 0,0
21.02.2019 14:00:00 14,8 5,3 15,4 5,6 7,5 4 2 11 6 SSE 1029,1 13 60 0,0
21.02.2019 13:00:00 13,1 4,5 15,6 5,5 7,5 5 3 11 6 ESE 1029,7 12 60 0,0
21.02.2019 12:00:00 11,3 4,5 14,3 5,5 7,5 0 0 8 5 N 1030,3 13 60 0,0
21.02.2019 11:00:00 8,2 3,6 10,7 5,6 7,5 3 2 7 4 SE 1030,5 11 60 0,0
21.02.2019 10:00:00 6,0 2,8 5,5 5,7 7,5 2 1 6 3 SSE 1030,5 9 60 0,0
21.02.2019 09:00:00 3,0 2,3 -2,8 5,8 7,5 0 0 5 3 N 1030,6 3,9 60 0,0
21.02.2019 08:00:00 0,4 -0,3 -3,8 5,9 7,5 0 0 4 2 N 1030,1 3,7 3 0,0
21.02.2019 07:00:00 1,1 0,2 -3,5 6,0 7,5 2 1 7 4 NW 1029,6 5 0 0,0
21.02.2019 06:00:00 1,0 0,4 -3,6 6,1 7,5 3 2 5 3 W 1029,5 3,7 0 0,0
21.02.2019 05:00:00 1,4 0,8 -3,6 6,1 7,5 0 0 6 3 N 1029,2 1,2 0 0,0
21.02.2019 04:00:00 2,1 1,4 -2,5 6,2 7,5 2 1 4 2 NNW 1028,9 6 0 0,0
21.02.2019 03:00:00 2,7 0,9 -2,0 6,3 7,5 0 0 8 4 N 1028,8 6 0 0,0
21.02.2019 02:00:00 3,2 2,0 -0,2 6,3 7,5 2 1 11 6 NNW 1028,5 7 0 0,0
21.02.2019 01:00:00 4,0 2,3 2,3 6,3 7,5 5 3 15 8 WNW 1028,0 9 0 0,0
21.02.2019 00:00:00 4,5 2,4 3,2 6,4 7,5 10 6 14 8 W 1027,5 10 0 0,0
20.02.2019 23:00:00 4,8 2,5 3,5 6,4 7,5 8 4 11 6 WNW 1027,1 10 0 0,0
20.02.2019 22:00:00 6,3 2,9 4,4 6,4 7,5 8 5 13 7 WNW 1026,9 14 0 0,0
20.02.2019 21:00:00 7,4 3,4 5,4 6,4 7,5 9 5 12 7 WNW 1026,7 15 0 0,0
20.02.2019 20:00:00 8,6 3,6 4,8 6,3 7,5 8 4 11 6 WNW 1026,1 17 0 0,0
20.02.2019 19:00:00 9,8 3,7 2,9 6,2 7,5 5 3 7 4 WNW 1025,8 19 0 0,0
20.02.2019 18:00:00 12,7 3,4 9,5 6,1 7,5 0 0 8 4 N 1025,0 20 50 0,0
20.02.2019 17:00:00 15,4 4,4 17,7 5,9 7,5 0 0 6 3 N 1024,6 20 60 0,0
20.02.2019 16:00:00 14,9 3,7 18,4 5,7 7,5 2 1 10 5 N 1024,7 20 60 0,0
20.02.2019 15:00:00 14,4 5,2 17,8 5,6 7,5 5 3 13 7 SE 1024,9 19 60 0,0
20.02.2019 14:00:00 13,3 5,2 14,3 5,4 7,4 8 4 17 9 SE 1025,2 19 60 0,0
20.02.2019 13:00:00 11,7 4,7 14,0 5,4 7,5 8 5 18 10 SE 1025,5 18 60 0,0
20.02.2019 12:00:00 9,4 3,8 13,3 5,4 7,5 9 5 15 8 SE 1026,0 16 60 0,0
20.02.2019 11:00:00 7,0 2,9 9,5 5,4 7,4 8 4 13 7 SSE 1026,1 14 60 0,0
20.02.2019 10:00:00 4,5 2,2 5,1 5,5 7,5 5 3 8 5 SSE 1026,0 10 60 0,0
20.02.2019 09:00:00 1,4 1,1 -2,5 5,6 7,5 0 0 5 3 N 1026,0 4,2 47 0,0
20.02.2019 08:00:00 -0,7 -1,0 -4,4 5,7 7,5 0 0 3 2 N 1025,4 4,7 0 0,0
20.02.2019 07:00:00 -0,4 -1,0 -4,1 5,8 7,4 0 0 3 1 N 1024,9 0,3 0 0,0
20.02.2019 06:00:00 0,6 -0,3 -3,5 5,9 7,5 0 0 5 3 N 1024,8 1,8 0 0,0
20.02.2019 05:00:00 1,2 0,8 -3,4 6,0 7,4 3 1 4 2 W 1024,5 5 0 0,0
20.02.2019 04:00:00 1,4 1,0 -3,1 6,1 7,5 3 1 4 2 WNW 1024,3 3,8 0 0,0
20.02.2019 03:00:00 2,3 1,3 -2,3 6,1 7,4 0 0 5 3 N 1024,5 6 0 0,0
20.02.2019 02:00:00 3,0 1,7 -1,2 6,2 7,5 0 0 10 5 N 1024,3 10 0 0,0
20.02.2019 01:00:00 3,1 1,5 0,9 6,2 7,4 6 3 11 6 W 1024,1 10 0 0,0
20.02.2019 00:00:00 3,5 2,2 0,2 6,3 7,5 4 2 6 4 WNW 1024,0 9 0 0,0
19.02.2019 23:00:00 4,3 2,3 1,2 6,3 7,4 4 2 7 4 WNW 1023,9 12 0 0,0
19.02.2019 22:00:00 5,0 2,9 3,1 6,3 7,4 6 3 10 6 WNW 1023,5 12 0 0,0
19.02.2019 21:00:00 6,9 3,1 4,3 6,3 7,4 9 5 12 7 WNW 1023,0 20 0 0,0
19.02.2019 20:00:00 6,8 3,2 1,7 6,3 7,4 5 3 11 6 WNW 1023,0 17 0 0,0
19.02.2019 19:00:00 8,8 3,6 1,8 6,2 7,4 2 1 6 3 W 1022,4 20 0 0,0
19.02.2019 18:00:00 11,5 3,5 7,7 6,1 7,4 5 3 8 5 SE 1021,6 20 48 0,0
19.02.2019 17:00:00 13,0 4,4 14,5 5,9 7,4 4 2 9 5 SE 1021,8 20 60 0,0
19.02.2019 16:00:00 13,9 4,7 16,8 5,7 7,4 3 1 13 7 SSE 1021,9 20 60 0,0
19.02.2019 15:00:00 13,7 4,3 17,2 5,6 7,4 5 3 12 6 S 1022,2 20 60 0,0
19.02.2019 14:00:00 12,6 4,8 14,3 5,5 7,4 8 4 11 6 SE 1022,8 20 60 0,0
19.02.2019 13:00:00 11,3 4,5 14,0 5,4 7,4 7 4 16 9 SSE 1023,8 19 60 0,0
19.02.2019 12:00:00 9,9 4,3 10,3 5,4 7,4 8 4 16 8 SSE 1024,7 17 45 0,0
19.02.2019 11:00:00 7,7 4,1 9,5 5,4 7,4 6 3 10 6 SE 1024,9 14 41 0,0
19.02.2019 10:00:00 5,1 2,6 1,8 5,5 7,4 4 2 6 3 SSE 1024,8 12 22 0,0
19.02.2019 09:00:00 1,6 0,7 -0,2 5,6 7,4 0 0 6 4 N 1024,9 10 31 0,0
19.02.2019 08:00:00 1,1 0,7 -3,9 5,7 7,4 5 3 10 6 W 1024,2 9 0 0,0
19.02.2019 07:00:00 0,8 -0,1 -3,5 5,7 7,4 0 0 6 3 N 1023,7 0,5 0 0,0
19.02.2019 06:00:00 1,5 0,8 -2,2 5,8 7,4 5 3 8 5 SE 1023,3 10 0 0,0
19.02.2019 05:00:00 2,5 1,5 -1,4 5,9 7,4 5 3 8 5 SSE 1023,2 8 0 0,0
19.02.2019 04:00:00 3,8 1,8 -0,7 5,9 7,4 4 2 10 5 SSE 1023,0 15 0 0,0
19.02.2019 03:00:00 4,1 2,1 0,8 6,0 7,4 5 3 12 7 S 1023,2 14 0 0,0
19.02.2019 02:00:00 5,1 2,6 2,5 6,0 7,4 9 5 18 10 S 1023,0 19 0 0,0
19.02.2019 01:00:00 5,9 2,5 2,5 6,1 7,4 5 3 13 7 S 1022,9 20 0 0,0
19.02.2019 00:00:00 5,8 2,4 0,9 6,1 7,4 8 4 13 7 S 1022,5 20 0 0,0
18.02.2019 23:00:00 5,4 1,9 2,3 6,2 7,4 8 4 13 7 SE 1022,3 20 0 0,0
18.02.2019 22:00:00 6,4 1,9 3,6 6,2 7,4 10 5 16 9 SSE 1021,9 20 0 0,0
18.02.2019 21:00:00 6,7 2,0 3,5 6,2 7,4 11 6 17 9 SSE 1021,4 20 0 0,0
18.02.2019 20:00:00 7,7 1,7 4,0 6,1 7,4 11 6 16 9 SSE 1021,0 20 0 0,0
18.02.2019 19:00:00 9,7 1,6 5,6 6,0 7,4 8 4 25 14 S 1020,4 20 0 0,0
18.02.2019 18:00:00 11,5 1,4 8,6 5,9 7,4 10 5 26 14 SSE 1019,6 20 44 0,0
18.02.2019 17:00:00 14,9 2,1 15,9 5,7 7,4 16 9 34 18 S 1019,4 20 60 0,0
18.02.2019 16:00:00 15,7 2,1 17,3 5,6 7,4 15 8 36 20 SSE 1019,3 20 60 0,0
18.02.2019 15:00:00 15,2 2,7 18,0 5,4 7,3 20 11 34 19 S 1019,7 20 60 0,0
18.02.2019 14:00:00 14,6 1,8 14,5 5,3 7,4 21 11 34 18 S 1020,5 20 60 0,0
18.02.2019 13:00:00 13,0 2,5 13,2 5,3 7,4 22 12 39 21 SSE 1021,4 20 49 0,0
18.02.2019 12:00:00 11,9 3,4 15,0 5,2 7,4 23 12 34 19 S 1022,2 20 60 0,0
18.02.2019 11:00:00 10,8 3,8 10,1 5,3 7,4 18 10 34 18 S 1022,5 20 60 0,0
18.02.2019 10:00:00 6,7 2,0 6,3 5,3 7,4 15 8 24 13 SSE 1023,0 20 60 0,0
18.02.2019 09:00:00 5,2 2,0 2,8 5,4 7,4 9 5 11 6 SE 1023,4 20 60 0,0
18.02.2019 08:00:00 3,2 1,6 1,5 5,4 7,4 8 5 18 10 SSE 1023,2 17 0 0,0
18.02.2019 07:00:00 3,8 2,5 1,4 5,5 7,4 13 7 18 10 SE 1022,9 16 0 0,0
18.02.2019 06:00:00 5,1 3,3 0,8 5,5 7,4 15 8 20 11 SE 1023,1 19 0 0,0
18.02.2019 05:00:00 4,3 2,3 1,2 5,6 7,4 10 5 15 8 SSE 1023,5 20 0 0,0
18.02.2019 04:00:00 5,0 2,4 2,6 5,6 7,4 12 6 22 12 SSE 1023,6 20 0 0,0
18.02.2019 03:00:00 6,4 3,0 3,4 5,7 7,4 16 9 21 11 SSE 1023,8 20 0 0,0
18.02.2019 02:00:00 5,8 2,4 0,9 5,7 7,4 16 9 27 14 SSE 1024,1 20 0 0,0
18.02.2019 01:00:00 4,3 1,5 0,1 5,8 7,4 9 5 13 7 SSE 1024,6 20 0 0,0
18.02.2019 00:00:00 6,1 2,0 2,4 5,8 7,4 10 5 17 9 SSE 1024,2 20 0 0,0

tt = Température de l'air
td = dewpoint
tt 5cm = Température de l'air 5cm
tt -20cm = Température de l'air -20cm
tt -100cm = Température de l'air -100cm
ff = Vitesse du vent
fx = gusts
dd = Direction du vent
ppp = reduced air pressure
vv = visibility
sd = Ensoleillement
rr = Quantités de précipitations

stations d'obs. à proximité